Auburn, CA

2:55 AM PST on December 10, 2019 (GMT -0800)
Auburn Municipal

Weather History for KAUN - November, 2019

Change the Weather History Date:

Wednesday, November 13, 2019

  Actual Average Record
Temperature  
Mean Temperature 63 °F -  
Max Temperature 73 °F 62 °F 80 °F (1990)
Min Temperature 53 °F 43 °F 31 °F (1985)
Degree Days  
Heating Degree Days 2    
Growing Degree Days 13 (Base 50)    
Moisture  
Dew Point 31 °F    
Average Humidity 30    
Maximum Humidity 51    
Minimum Humidity 22    
Precipitation  
Precipitation 0.00 in - - ()
Sea Level Pressure  
Sea Level Pressure 30.01 in    
Wind  
Wind Speed 2 mph ()    
Max Wind Speed 9 mph    
Max Gust Speed -    
Visibility 10.0 miles    
Events      
Averages and records for this station are not official NWS values.
T = Trace of Precipitation, MM = Missing Value Source: Averaged Metar Reports

Daily Weather History Graph

Daily Weather History Graph

Search for Another Location

Airport or City:

Astronomy

Nov. 13, 2019 Rise Set
Actual Time 6:44 AM PST 4:52 PM PST
Civil Twilight 6:16 AM PST 5:20 PM PST
Nautical Twilight 5:44 AM PST 5:52 PM PST
Astronomical Twilight 5:12 AM PST 6:23 PM PST
Moon 5:59 PM PST (11/13) 7:43 AM PST (11/13)
Length of Visible Light 11h 04m
Length of Day
10h 07m
Full, 98% of the Moon is Illuminated
Nov 13
Full
Nov 19
Last Quarter
Nov 26
New
Dec 3
First Quarter
Dec 11
Full

Hourly Weather History & Observations

Time (PST) Temp. Dew Point Humidity Pressure Visibility Wind Dir Wind Speed Gust Speed Precip Events Conditions
12:15 AM 60.8 °F 30.2 °F 31% 30.04 in 10.0 mi East 5.8 mph - N/A   Clear
12:35 AM 59.0 °F 30.2 °F 34% 30.03 in 10.0 mi Calm Calm - N/A   Clear
12:55 AM 59.0 °F 28.4 °F 31% 30.03 in 10.0 mi East 5.8 mph - N/A   Clear
1:15 AM 60.8 °F 28.4 °F 29% 30.02 in 10.0 mi East 8.1 mph - N/A   Clear
1:35 AM 60.8 °F 26.6 °F 27% 30.02 in 10.0 mi East 9.2 mph - N/A   Clear
1:55 AM 60.8 °F 26.6 °F 27% 30.02 in 10.0 mi East 6.9 mph - N/A   Clear
2:15 AM 59.0 °F 26.6 °F 29% 30.02 in 10.0 mi Calm Calm - N/A   Clear
2:35 AM 59.0 °F 26.6 °F 29% 30.02 in 10.0 mi Calm Calm - N/A   Clear
2:55 AM 60.8 °F 26.6 °F 27% 30.02 in 10.0 mi Calm Calm - N/A   Clear
3:15 AM 60.8 °F 26.6 °F 27% 30.02 in 10.0 mi East 3.5 mph - N/A   Clear
3:35 AM 59.0 °F 26.6 °F 29% 30.02 in 10.0 mi Calm Calm - N/A   Clear
3:55 AM 59.0 °F 26.6 °F 29% 30.02 in 10.0 mi Calm Calm - N/A   Clear
4:15 AM 60.8 °F 26.6 °F 27% 30.03 in 10.0 mi Calm Calm - N/A   Clear
4:35 AM 59.0 °F 26.6 °F 29% 30.02 in 10.0 mi Calm Calm - N/A   Clear
4:55 AM 59.0 °F 26.6 °F 29% 30.02 in 10.0 mi Calm Calm - N/A   Clear
5:15 AM 59.0 °F 26.6 °F 29% 30.02 in 10.0 mi East 6.9 mph - N/A   Clear
5:55 AM 60.8 °F 26.6 °F 27% 30.02 in 10.0 mi East 5.8 mph - N/A   Clear
6:15 AM 59.0 °F 26.6 °F 29% 30.02 in 10.0 mi Calm Calm - N/A   Clear
6:35 AM 59.0 °F 26.6 °F 29% 30.02 in 10.0 mi East 3.5 mph - N/A   Clear
6:55 AM 59.0 °F 26.6 °F 29% 30.02 in 10.0 mi Calm Calm - N/A   Clear
7:15 AM 60.8 °F 26.6 °F 27% 30.03 in 10.0 mi Calm Calm - N/A   Clear
7:35 AM 60.8 °F 26.6 °F 27% 30.03 in 10.0 mi Calm Calm - N/A   Clear
7:55 AM 62.6 °F 26.6 °F 26% 30.03 in 10.0 mi Calm Calm - N/A   Clear
8:15 AM 64.4 °F 28.4 °F 26% 30.04 in 10.0 mi East 5.8 mph - N/A   Clear
8:35 AM 64.4 °F 28.4 °F 26% 30.04 in 10.0 mi Calm Calm - N/A   Clear
8:55 AM 66.2 °F 28.4 °F 24% 30.04 in 10.0 mi Calm Calm - N/A   Clear
9:15 AM 68.0 °F 30.2 °F 24% 30.04 in 10.0 mi Calm Calm - N/A   Clear
9:35 AM 69.8 °F 30.2 °F 23% 30.04 in 10.0 mi Calm Calm - N/A   Clear
9:55 AM 69.8 °F 30.2 °F 23% 30.04 in 10.0 mi Calm Calm - N/A   Clear
10:15 AM 69.8 °F 30.2 °F 23% 30.04 in 10.0 mi Calm Calm - N/A   Clear
10:35 AM 71.6 °F 30.2 °F 22% 30.05 in 10.0 mi Calm Calm - N/A   Clear
10:55 AM 71.6 °F 30.2 °F 22% 30.04 in 10.0 mi Calm Calm - N/A   Clear
11:15 AM 71.6 °F 30.2 °F 22% 30.04 in 10.0 mi Calm Calm - N/A   Clear
11:35 AM 71.6 °F 30.2 °F 22% 30.03 in 10.0 mi Calm Calm - N/A   Clear
11:55 AM 71.6 °F 32.0 °F 23% 30.02 in 10.0 mi Calm Calm - N/A   Clear
12:15 PM 73.4 °F 32.0 °F 22% 30.01 in 10.0 mi Calm Calm - N/A   Clear
12:35 PM 73.4 °F 32.0 °F 22% 30.01 in 10.0 mi Calm Calm - N/A   Clear
12:55 PM 73.4 °F 33.8 °F 23% 30.00 in 10.0 mi Calm Calm - N/A   Clear
1:15 PM 73.4 °F 32.0 °F 22% 29.99 in 9.0 mi Calm Calm - N/A   Clear
1:35 PM 73.4 °F 33.8 °F 23% 29.99 in 10.0 mi Calm Calm - N/A   Clear
1:55 PM 73.4 °F 33.8 °F 23% 29.98 in 10.0 mi Calm Calm - N/A   Clear
2:15 PM 73.4 °F 33.8 °F 23% 29.98 in 10.0 mi Calm Calm - N/A   Clear
2:35 PM 73.4 °F 35.6 °F 25% 29.98 in 10.0 mi Calm Calm - N/A   Clear
2:55 PM 73.4 °F 35.6 °F 25% 29.98 in 10.0 mi Calm Calm - N/A   Clear
3:15 PM 71.6 °F 35.6 °F 27% 29.98 in 10.0 mi Calm Calm - N/A   Clear
3:35 PM 71.6 °F 35.6 °F 27% 29.98 in 10.0 mi Calm Calm - N/A   Clear
3:55 PM 69.8 °F 35.6 °F 28% 29.98 in 10.0 mi Calm Calm - N/A   Clear
4:15 PM 68.0 °F 35.6 °F 30% 29.97 in 10.0 mi Calm Calm - N/A   Clear
4:35 PM 64.4 °F 35.6 °F 34% 29.97 in 9.0 mi Calm Calm - N/A   Clear
4:55 PM 60.8 °F 33.8 °F 36% 29.97 in 9.0 mi Calm Calm - N/A   Clear
5:15 PM 59.0 °F 35.6 °F 42% 29.98 in 10.0 mi Calm Calm - N/A   Clear
5:35 PM 59.0 °F 35.6 °F 42% 29.98 in 10.0 mi Calm Calm - N/A   Clear
5:55 PM 59.0 °F 35.6 °F 42% 29.98 in 10.0 mi Calm Calm - N/A   Clear
6:15 PM 59.0 °F 35.6 °F 42% 29.97 in 10.0 mi Calm Calm - N/A   Clear
6:55 PM 57.2 °F 35.6 °F 44% 29.99 in 10.0 mi Calm Calm - N/A   Clear
7:15 PM 57.2 °F 35.6 °F 44% 29.99 in 10.0 mi Calm Calm - N/A   Clear
7:35 PM 57.2 °F 35.6 °F 44% 30.00 in 10.0 mi Calm Calm - N/A   Clear
7:55 PM 53.6 °F 35.6 °F 51% 30.00 in 10.0 mi Calm Calm - N/A   Clear
8:15 PM 55.4 °F 35.6 °F 47% 30.00 in 10.0 mi Calm Calm - N/A   Clear
8:35 PM 55.4 °F 35.6 °F 47% 30.00 in 10.0 mi Calm Calm - N/A   Clear
9:15 PM 62.6 °F 37.4 °F 39% 30.00 in 10.0 mi East 8.1 mph - N/A   Clear
9:35 PM 62.6 °F 35.6 °F 37% 29.99 in 10.0 mi Calm Calm - N/A   Clear
9:55 PM 62.6 °F 35.6 °F 37% 30.00 in 10.0 mi East 3.5 mph - N/A   Clear
10:15 PM 62.6 °F 35.6 °F 37% 29.99 in 10.0 mi East 6.9 mph - N/A   Clear
10:35 PM 62.6 °F 35.6 °F 37% 30.00 in 10.0 mi Calm Calm - N/A   Clear
11:15 PM 62.6 °F 35.6 °F 37% 29.99 in 10.0 mi Calm Calm - N/A   Clear
11:35 PM 62.6 °F 35.6 °F 37% 30.00 in 10.0 mi Calm Calm - N/A   Clear
11:55 PM 60.8 °F 35.6 °F 39% 30.00 in 10.0 mi Calm Calm - N/A   Clear